Weather History for Livingston, MT

Change the Weather History Date:

Thursday, January 30, 2014

  Actual Average Record
Temperature  
Mean Temperature 22 °F 27 °F  
Max Temperature 37 °F 37 °F 61 °F (1962)
Min Temperature 7 °F 18 °F -23 °F (1985)
Degree Days  
Heating Degree Days 43 38  
Month to date heating degree days 942 1144  
Since 1 July heating degree days 3897 4309  
Moisture  
Dew Point 9 °F    
Average Humidity 68    
Maximum Humidity 88    
Minimum Humidity 48    
Precipitation  
Precipitation 0.10 in 0.01 in 0.11 in (2006)
Month to date precipitation 0.30 0.47  
Year to date precipitation 0.30 0.47  
Sea Level Pressure  
Sea Level Pressure 29.81 in    
Wind  
Wind Speed 8 mph (ENE)    
Max Wind Speed 28 mph    
Max Gust Speed 34 mph    
Visibility 4 miles    
Events Fog , Snow    
T = Trace of Precipitation, MM = Missing Value Source: NWS Daily Summary

Daily Weather History Graph

Daily Weather History Graph

Search for Another Location

Airport:

Trip Planner

Search our weather history database for the weather conditions in past years. The results will help you decide how hot, cold, wet, or windy it might be!

Date:

Astronomy

Jan. 30, 2014 Rise Set
Actual Time 7:45 AM MST 5:25 PM MST
Civil Twilight 7:13 AM MST 5:57 PM MST
Nautical Twilight 6:37 AM MST 6:32 PM MST
Astronomical Twilight 6:03 AM MST 7:07 PM MST
Moon 7:11 AM MST 5:44 PM MST
Length of Visible Light 10h 43m
Length of Day
9h 39m
Waning Crescent, 0% of the Moon is Illuminated
Jan 30
Waning Crescent
Jan 30
New
Feb 6
First Quarter
Feb 14
Full
Feb 22
Last Quarter

Hourly Weather History & Observations

Time (MST) Temp. Windchill Dew Point Humidity Pressure Visibility Wind Dir Wind Speed Gust Speed Precip Events Conditions
12:53 AM 34.0 °F 23.4 °F 25.0 °F 70% 29.57 in 10.0 mi WSW 17.3 mph 23.0 mph N/A   Overcast
1:53 AM 34.0 °F 26.0 °F 24.1 °F 67% 29.57 in 10.0 mi WNW 10.4 mph - N/A   Overcast
2:26 AM 24.1 °F 8.3 °F 19.0 °F 81% 29.58 in 8.0 mi East 24.2 mph 34.5 mph 0.00 in Snow Light Snow
2:33 AM 24.1 °F 9.8 °F 19.0 °F 81% 29.60 in 2.5 mi East 19.6 mph - 0.00 in Snow Light Snow
2:42 AM 23.0 °F 8.7 °F 19.0 °F 85% 29.61 in 1.5 mi ENE 18.4 mph - 0.00 in Snow Light Snow
2:53 AM 21.9 °F 7.8 °F 18.0 °F 85% 29.71 in 1.8 mi ENE 17.3 mph 27.6 mph 0.00 in Snow Light Snow
3:18 AM 21.0 °F 6.6 °F 17.1 °F 85% 29.63 in 3.0 mi ENE 17.3 mph - 0.01 in Snow Light Snow
3:29 AM 21.0 °F 6.2 °F 17.1 °F 85% 29.63 in 1.8 mi East 18.4 mph - 0.01 in Snow Light Snow
3:36 AM 19.9 °F 3.2 °F 16.0 °F 85% 29.64 in 1.0 mi East 23.0 mph 27.6 mph 0.01 in Snow Light Snow
3:43 AM 19.0 °F 2.0 °F 15.1 °F 85% 29.64 in 0.8 mi East 23.0 mph - 0.01 in Snow Light Snow
3:53 AM 19.0 °F 3.2 °F 15.1 °F 85% 29.75 in 0.8 mi East 19.6 mph - 0.02 in Snow Light Snow
4:53 AM 16.0 °F -1.3 °F 12.0 °F 84% 29.80 in 1.0 mi East 20.7 mph - 0.01 in Snow Light Snow
5:02 AM 16.0 °F -0.9 °F 12.0 °F 84% 29.68 in 0.8 mi East 19.6 mph - 0.00 in Snow Light Snow
5:39 AM 14.0 °F -5.5 °F 10.0 °F 84% 29.70 in 1.0 mi East 25.3 mph 28.8 mph 0.01 in Snow Light Snow
5:43 AM 14.0 °F -5.1 °F 9.0 °F 80% 29.70 in 1.2 mi East 24.2 mph - 0.01 in Snow Light Snow
5:53 AM 14.0 °F -3.4 °F 9.0 °F 80% 29.83 in 2.5 mi East 19.6 mph - 0.01 in Snow Light Snow
6:04 AM 12.9 °F -4.9 °F 9.0 °F 84% 29.71 in 3.0 mi East 19.6 mph - 0.00 in Snow Light Snow
6:12 AM 12.9 °F -4.9 °F 9.0 °F 84% 29.70 in 1.8 mi East 19.6 mph - 0.00 in Snow Light Snow
6:24 AM 12.9 °F -5.7 °F 8.1 °F 81% 29.73 in 1.0 mi East 21.9 mph - 0.00 in Snow Light Snow
6:31 AM 12.9 °F -4.4 °F 8.1 °F 81% 29.72 in 0.8 mi East 18.4 mph - 0.00 in Snow Light Snow
6:41 AM 12.0 °F -5.6 °F 8.1 °F 84% 29.72 in 1.2 mi East 18.4 mph - 0.00 in Snow Light Snow
6:53 AM 12.0 °F -6.5 °F 7.0 °F 80% 29.86 in 1.8 mi East 20.7 mph - 0.00 in Snow Light Snow
7:23 AM 12.0 °F -3.4 °F 8.1 °F 84% 29.75 in 2.5 mi East 13.8 mph - 0.00 in Snow Light Snow
7:44 AM 12.0 °F -3.4 °F 7.0 °F 80% 29.77 in 2.5 mi East 13.8 mph - 0.00 in Snow Light Snow
7:53 AM 12.0 °F -4.0 °F 7.0 °F 80% 29.89 in 2.0 mi East 15.0 mph - 0.00 in Snow Light Snow
8:05 AM 12.0 °F -1.3 °F 7.0 °F 80% 29.79 in 2.0 mi East 10.4 mph - 0.00 in Snow Light Snow
8:28 AM 12.0 °F 0.5 °F 7.0 °F 80% 29.78 in 1.8 mi East 8.1 mph - 0.00 in Snow Light Snow
8:53 AM 12.0 °F 2.7 °F 7.0 °F 80% 29.93 in 1.0 mi East 5.8 mph - 0.00 in Snow Light Snow
9:10 AM 12.0 °F -1.3 °F 7.0 °F 80% 29.81 in 0.5 mi East 10.4 mph - 0.01 in Snow Snow
9:24 AM 10.9 °F -1.8 °F 7.0 °F 84% 29.81 in 0.2 mi East 9.2 mph - 0.02 in Fog , Snow Snow
9:31 AM 10.9 °F -1.8 °F 7.0 °F 84% 29.81 in 0.8 mi East 9.2 mph - 0.02 in Snow Light Snow
9:35 AM 12.0 °F -0.4 °F 7.0 °F 80% 29.81 in 1.2 mi ENE 9.2 mph - 0.02 in Snow Light Snow
9:45 AM 12.0 °F -0.4 °F 7.0 °F 80% 29.82 in 2.5 mi ENE 9.2 mph - 0.02 in Snow Light Snow
9:53 AM 10.9 °F -4.7 °F 6.1 °F 81% 29.96 in 2.5 mi East 13.8 mph - 0.02 in Snow Light Snow
10:02 AM 10.9 °F -4.1 °F 6.1 °F 81% 29.82 in 6.0 mi East 12.7 mph - 0.00 in Snow Light Snow
10:53 AM 12.0 °F -0.4 °F 5.0 °F 73% 29.95 in 10.0 mi ENE 9.2 mph - 0.00 in   Mostly Cloudy
11:53 AM 12.9 °F 5.2 °F 6.1 °F 74% 29.95 in 10.0 mi East 4.6 mph - N/A   Scattered Clouds
12:53 PM 12.9 °F - 6.1 °F 74% 29.93 in 10.0 mi Calm Calm - N/A   Mostly Cloudy
1:53 PM 12.9 °F - 6.1 °F 74% 29.93 in 10.0 mi Calm Calm - N/A   Mostly Cloudy
2:53 PM 10.9 °F 2.9 °F 5.0 °F 77% 29.98 in 10.0 mi South 4.6 mph - N/A   Scattered Clouds
3:53 PM 14.0 °F - 5.0 °F 67% 29.98 in 10.0 mi Calm Calm - N/A   Overcast
4:53 PM 10.9 °F 4.7 °F 5.0 °F 77% 30.00 in 10.0 mi ENE 3.5 mph - N/A   Mostly Cloudy
5:53 PM 9.0 °F - 3.9 °F 80% 30.02 in 10.0 mi Calm Calm - N/A   Scattered Clouds
6:53 PM 8.1 °F 1.4 °F 1.9 °F 76% 30.04 in 10.0 mi SSE 3.5 mph - N/A   Overcast
7:53 PM 10.0 °F - 5.0 °F 80% 30.02 in 10.0 mi Calm Calm - N/A   Overcast
8:53 PM 10.9 °F - 5.0 °F 77% 30.01 in 2.5 mi Calm Calm - 0.00 in Snow Light Snow
9:05 PM 10.9 °F 4.7 °F 6.1 °F 81% 29.79 in 4.0 mi NW 3.5 mph - 0.00 in Snow Light Snow
9:11 PM 10.0 °F - 6.1 °F 84% 29.79 in 2.0 mi Calm Calm - 0.00 in Snow Light Snow
9:18 PM 10.0 °F 3.6 °F 6.1 °F 84% 29.79 in 1.2 mi NNW 3.5 mph - 0.00 in Snow Light Snow
9:45 PM 10.0 °F 3.6 °F 6.1 °F 84% 29.79 in 1.0 mi NNW 3.5 mph - 0.01 in Snow Light Snow
9:53 PM 10.0 °F 3.6 °F 6.1 °F 84% 30.01 in 1.0 mi NW 3.5 mph - 0.01 in Snow Light Snow
10:14 PM 10.0 °F 3.6 °F 6.1 °F 84% 29.78 in 1.2 mi WNW 3.5 mph - 0.01 in Snow Light Snow
10:30 PM 10.0 °F 1.8 °F 5.0 °F 80% 29.78 in 1.0 mi WNW 4.6 mph - 0.02 in Snow Light Snow
10:39 PM 10.0 °F 3.6 °F 6.1 °F 84% 29.78 in 1.2 mi WNW 3.5 mph - 0.02 in Snow Light Snow
10:53 PM 10.0 °F 1.8 °F 6.1 °F 84% 30.00 in 1.2 mi West 4.6 mph - 0.02 in Snow Light Snow
11:24 PM 10.0 °F 1.8 °F 6.1 °F 84% 29.78 in 3.0 mi West 4.6 mph - 0.01 in Snow Light Snow
11:35 PM 10.0 °F 3.6 °F 6.1 °F 84% 29.78 in 4.0 mi West 3.5 mph - 0.01 in Snow Light Snow
11:53 PM 10.0 °F 3.6 °F 5.0 °F 80% 29.99 in 9.0 mi West 3.5 mph - 0.01 in Snow Light Snow